When you browse on this site, cookies collect data to enhance your experience and personalize the content and advertising you see.
Visit our Privacy Policy to learn more. By continuing to use the site, you agree to this use of cookies and data.
  • In Netherlands
  • List of Countries
  • For 7 days
  • Water Temperature
  • Weather Map
  • Weather Widgets
  • user-avatar
    Login

    Hourly Weather Kulachiha

    Today, 20 January, Monday

    Time Temperature Precipitation Wind Pressure Humidity
    00:00 0°C° 0 mm 5 mps 753 mmHg 90%
    01:00 0°C° 0 mm 4 mps 753 mmHg 88%
    02:00 0°C° 0 mm 5 mps 754 mmHg 86%
    03:00 0°C° 0.1 mm 5 mps 754 mmHg 89%
    04:00 0°C° 0.1 mm 5 mps 753 mmHg 91%
    05:00 0°C° 0.1 mm 5 mps 753 mmHg 94%
    06:00 0°C° 0.1 mm 5 mps 753 mmHg 95%
    07:00 0°C° 0.1 mm 5 mps 753 mmHg 95%
    08:00 0°C° 0.1 mm 5 mps 754 mmHg 96%
    09:00 0°C° 0.1 mm 5 mps 753 mmHg 94%
    10:00 0°C° 0.1 mm 5 mps 753 mmHg 93%
    11:00 0°C° 0.1 mm 5 mps 753 mmHg 91%
    12:00 -1°C° 0.1 mm 5 mps 753 mmHg 92%
    13:00 -1°C° 0.1 mm 5 mps 753 mmHg 94%
    14:00 -1°C° 0.1 mm 5 mps 753 mmHg 95%
    15:00 -1°C° 0 mm 5 mps 753 mmHg 95%
    16:00 -1°C° 0 mm 4 mps 753 mmHg 95%
    17:00 -1°C° 0 mm 4 mps 752 mmHg 95%
    18:00 -1°C° 0 mm 5 mps 752 mmHg 91%
    19:00 -1°C° 0 mm 5 mps 752 mmHg 88%
    20:00 0°C° 0 mm 5 mps 751 mmHg 84%
    21:00 -1°C° 0 mm 5 mps 751 mmHg 84%
    22:00 -1°C° 0 mm 5 mps 750 mmHg 83%
    23:00 -1°C° 0 mm 5 mps 749 mmHg 83%

    Tomorrow, 21 January, Tuesday

    Time Temperature Precipitation Wind Pressure Humidity
    00:00 -1°C° 0 mm 5 mps 749 mmHg 86%
    01:00 -1°C° 0 mm 5 mps 748 mmHg 89%
    02:00 -1°C° 0 mm 5 mps 748 mmHg 91%
    03:00 -1°C° 0.4 mm 5 mps 746 mmHg 91%
    04:00 -2°C° 0.4 mm 6 mps 745 mmHg 90%
    05:00 -1°C° 0.4 mm 6 mps 744 mmHg 90%
    06:00 -1°C° 0.2 mm 6 mps 743 mmHg 89%
    07:00 +1°C° 0.2 mm 6 mps 742 mmHg 88%
    08:00 +1°C° 0.2 mm 5 mps 742 mmHg 88%
    09:00 +2°C° 0 mm 6 mps 741 mmHg 87%
    10:00 +2°C° 0 mm 6 mps 741 mmHg 87%
    11:00 +3°C° 0 mm 6 mps 740 mmHg 86%
    12:00 +3°C° 0.1 mm 6 mps 740 mmHg 87%
    13:00 +3°C° 0.1 mm 5 mps 739 mmHg 87%
    14:00 +3°C° 0.1 mm 5 mps 739 mmHg 87%
    15:00 +3°C° 0.5 mm 5 mps 738 mmHg 89%
    16:00 +4°C° 0.5 mm 4 mps 737 mmHg 92%
    17:00 +4°C° 0.5 mm 4 mps 736 mmHg 94%
    18:00 +2°C° 0.4 mm 5 mps 736 mmHg 90%
    19:00 +2°C° 0.4 mm 6 mps 735 mmHg 86%
    20:00 +2°C° 0.4 mm 7 mps 735 mmHg 82%
    21:00 0°C° 0 mm 7 mps 736 mmHg 79%
    22:00 -2°C° 0 mm 6 mps 736 mmHg 76%
    23:00 -3°C° 0 mm 6 mps 736 mmHg 73%

    Day after tomorrow, 22 January, Wednesday

    Time Temperature Precipitation Wind Pressure Humidity
    00:00 -3°C° 0 mm 6 mps 736 mmHg 73%
    01:00 -3°C° 0 mm 6 mps 736 mmHg 74%
    02:00 -4°C° 0 mm 5 mps 736 mmHg 75%
    03:00 -4°C° 0 mm 5 mps 736 mmHg 76%
    04:00 -4°C° 0 mm 5 mps 735 mmHg 78%
    05:00 -4°C° 0 mm 5 mps 734 mmHg 79%
    06:00 -4°C° 0.1 mm 5 mps 734 mmHg 81%
    07:00 -4°C° 0.1 mm 6 mps 733 mmHg 82%
    08:00 -4°C° 0.1 mm 6 mps 733 mmHg 83%
    09:00 -3°C° 0.2 mm 6 mps 733 mmHg 78%
    10:00 -3°C° 0.2 mm 6 mps 732 mmHg 73%
    11:00 -3°C° 0.2 mm 6 mps 732 mmHg 67%
    12:00 -3°C° 0 mm 6 mps 732 mmHg 68%
    13:00 -3°C° 0 mm 6 mps 732 mmHg 69%
    14:00 -4°C° 0 mm 6 mps 732 mmHg 69%
    15:00 -4°C° 0 mm 6 mps 732 mmHg 71%
    16:00 -4°C° 0 mm 6 mps 732 mmHg 73%
    17:00 -5°C° 0 mm 6 mps 732 mmHg 75%
    18:00 -5°C° 0.1 mm 6 mps 733 mmHg 77%
    19:00 -5°C° 0.1 mm 6 mps 734 mmHg 79%
    20:00 -5°C° 0.1 mm 6 mps 734 mmHg 81%
    21:00 -6°C° 0.1 mm 6 mps 735 mmHg 80%
    22:00 -6°C° 0.1 mm 6 mps 736 mmHg 79%
    23:00 -8°C° 0.1 mm 6 mps 736 mmHg 78%

    23 January, Thursday

    Time Temperature Precipitation Wind Pressure Humidity
    00:00 -8°C° 0 mm 6 mps 737 mmHg 74%
    01:00 -9°C° 0 mm 6 mps 738 mmHg 71%
    02:00 -9°C° 0 mm 6 mps 739 mmHg 67%
    03:00 -9°C° 0 mm 6 mps 739 mmHg 65%
    04:00 -9°C° 0 mm 6 mps 739 mmHg 63%
    05:00 -10°C° 0 mm 6 mps 740 mmHg 60%
    06:00 -10°C° 0 mm 6 mps 740 mmHg 62%
    07:00 -10°C° 0 mm 5 mps 741 mmHg 63%
    08:00 -10°C° 0 mm 5 mps 741 mmHg 64%
    09:00 -10°C° 0.1 mm 5 mps 742 mmHg 63%
    10:00 -8°C° 0.1 mm 5 mps 743 mmHg 61%
    11:00 -9°C° 0.1 mm 6 mps 743 mmHg 59%
    12:00 -8°C° 0 mm 5 mps 744 mmHg 59%
    13:00 -8°C° 0 mm 5 mps 744 mmHg 59%
    14:00 -10°C° 0 mm 5 mps 745 mmHg 58%
    15:00 -9°C° 0 mm 4 mps 745 mmHg 61%
    16:00 -9°C° 0 mm 4 mps 746 mmHg 64%
    17:00 -8°C° 0 mm 3 mps 747 mmHg 67%
    18:00 -9°C° 0 mm 3 mps 747 mmHg 69%
    19:00 -9°C° 0 mm 3 mps 747 mmHg 72%
    20:00 -8°C° 0 mm 2 mps 747 mmHg 74%
    21:00 -8°C° 0 mm 2 mps 747 mmHg 72%
    22:00 -7°C° 0 mm 2 mps 747 mmHg 69%
    23:00 -7°C° 0 mm 2 mps 747 mmHg 67%

    24 January, Friday

    Time Temperature Precipitation Wind Pressure Humidity
    00:00 -8°C° 0 mm 3 mps 746 mmHg 68%
    01:00 -7°C° 0 mm 3 mps 745 mmHg 69%
    02:00 -7°C° 0 mm 3 mps 745 mmHg 70%
    03:00 -6°C° 0.3 mm 3 mps 744 mmHg 77%
    04:00 -7°C° 0.3 mm 4 mps 743 mmHg 84%
    05:00 -5°C° 0.3 mm 4 mps 742 mmHg 92%
    06:00 -5°C° 0.2 mm 4 mps 742 mmHg 93%
    07:00 -4°C° 0.2 mm 4 mps 741 mmHg 93%
    08:00 -4°C° 0.2 mm 4 mps 740 mmHg 94%
    09:00 -3°C° 0.1 mm 4 mps 740 mmHg 94%
    10:00 -2°C° 0.1 mm 4 mps 740 mmHg 94%
    11:00 -1°C° 0.1 mm 4 mps 739 mmHg 94%
    12:00 -1°C° 0.1 mm 4 mps 739 mmHg 94%
    13:00 0°C° 0.1 mm 4 mps 738 mmHg 94%
    14:00 +1°C° 0.1 mm 4 mps 738 mmHg 94%
    15:00 +1°C° 0.2 mm 4 mps 738 mmHg 94%
    16:00 +1°C° 0.2 mm 4 mps 738 mmHg 95%
    17:00 +1°C° 0.2 mm 4 mps 737 mmHg 95%
    18:00 +1°C° 0.4 mm 4 mps 737 mmHg 96%
    19:00 +1°C° 0.4 mm 4 mps 737 mmHg 96%
    20:00 +1°C° 0.4 mm 4 mps 737 mmHg 97%
    21:00 +1°C° 0.2 mm 4 mps 737 mmHg 97%
    22:00 +1°C° 0.2 mm 4 mps 737 mmHg 97%
    23:00 +2°C° 0.2 mm 3 mps 737 mmHg 97%

    25 January, Saturday

    Time Temperature Precipitation Wind Pressure Humidity
    00:00 +1°C° 0.5 mm 3 mps 737 mmHg 97%
    01:00 +1°C° 0.5 mm 3 mps 737 mmHg 97%
    02:00 +2°C° 0.5 mm 2 mps 737 mmHg 97%
    03:00 +2°C° 0.1 mm 2 mps 737 mmHg 97%
    04:00 +1°C° 0.1 mm 2 mps 737 mmHg 97%
    05:00 +1°C° 0.1 mm 2 mps 738 mmHg 97%
    06:00 +1°C° 0 mm 2 mps 738 mmHg 97%
    07:00 +1°C° 0 mm 2 mps 738 mmHg 97%
    08:00 0°C° 0 mm 3 mps 738 mmHg 96%
    09:00 +1°C° 0 mm 3 mps 739 mmHg 95%
    10:00 +1°C° 0 mm 3 mps 739 mmHg 94%
    11:00 +1°C° 0 mm 3 mps 740 mmHg 93%
    12:00 +1°C° 0 mm 3 mps 740 mmHg 92%
    13:00 +1°C° 0 mm 3 mps 740 mmHg 91%
    14:00 0°C° 0 mm 4 mps 740 mmHg 90%
    15:00 0°C° 0 mm 4 mps 740 mmHg 90%
    16:00 0°C° 0 mm 3 mps 740 mmHg 90%
    17:00 0°C° 0 mm 3 mps 741 mmHg 90%
    18:00 -1°C° 0 mm 3 mps 741 mmHg 90%
    19:00 -1°C° 0 mm 3 mps 742 mmHg 91%
    20:00 -1°C° 0 mm 3 mps 742 mmHg 91%
    21:00 -2°C° 0 mm 3 mps 742 mmHg 92%
    22:00 -2°C° 0 mm 3 mps 743 mmHg 92%
    23:00 -2°C° 0 mm 2 mps 743 mmHg 93%
    Show more